Theta_e
303 304 303 303 302 302 304 304 305 313 316 318 320 322 320 321 321 322 322 322 322 321 321 321 321 321 321 320 319 318 318 317 316 316 315 312 304 298 297 297 297 298 298
302 303 304 304 304 303 303 305 306 308 314 316 320 320 319 320 320 322 322 321 322 321 321 321 320 320 320 319 318 317 317 316 314 310 301 298 297 297 297 297 297 297 297
304 304 304 304 305 305 305 305 307 310 312 315 318 316 320 319 320 320 321 320 320 319 319 319 319 318 318 317 317 315 311 303 299 297 296 297 297 297 297 297 297 297 297
302 303 304 305 305 306 307 307 308 309 311 313 314 316 317 317 318 318 317 317 317 318 317 316 316 315 314 311 306 300 298 297 296 296 296 296 296 296 296 297 297 296 297
300 302 303 304 305 306 307 308 309 311 312 314 313 314 315 317 316 316 316 316 316 316 315 314 313 307 301 298 297 296 296 296 296 296 296 296 296 296 296 295 295 296 295
300 302 302 302 304 305 306 307 308 310 311 312 313 313 313 313 313 314 314 315 314 310 305 301 298 297 296 296 296 296 296 296 295 295 295 295 295 294 294 294 294 293 293
296 298 301 301 302 303 305 305 307 307 308 309 310 311 311 311 310 309 304 302 300 298 297 296 295 295 296 295 295 295 295 295 295 295 294 294 294 293 293 293 293 293 292
294 296 299 299 302 303 304 304 304 304 304 304 304 305 305 302 300 298 298 297 297 296 295 295 295 295 295 295 295 295 294 294 294 294 294 293 293 292 292 293 293 293 293
294 294 297 295 296 298 299 297 299 302 301 299 300 302 299 297 296 296 295 295 295 294 294 294 294 294 294 294 294 294 294 294 294 293 293 292 292 292 292 292 292 293 292
294 294 296 296 295 295 295 294 295 295 298 299 296 295 296 297 296 295 294 294 294 294 294 294 294 294 294 294 294 294 293 293 293 292 292 292 292 292 292 292 291 291 291
294 293 294 294 294 294 294 293 293 293 293 294 294 294 294 294 294 294 294 294 293 294 293 293 294 294 294 294 293 293 293 293 292 292 292 292 292 292 291 291 291 290 290
293 293 293 293 293 293 293 293 293 293 292 293 293 293 293 293 293 294 294 293 293 293 293 293 294 293 293 293 293 293 292 292 292 292 292 292 291 291 290 290 290 289 289
293 293 292 293 293 293 293 292 292 292 292 293 293 293 293 294 294 293 293 293 293 293 293 293 293 293 293 293 292 292 292 292 292 292 292 291 291 290 290 289 289 289 289
293 293 292 292 292 292 292 292 292 292 292 292 292 293 293 293 293 293 293 293 293 293 293 293 293 293 292 292 292 292 292 292 292 291 291 291 290 290 290 289 289 289 289
294 293 293 293 292 292 292 292 292 292 292 292 292 292 292 292 292 292 292 292 293 293 292 292 292 292 292 292 292 292 291 291 291 291 291 290 290 289 289 289 289 289 289
294 294 294 293 293 293 292 292 293 292 292 292 292 292 292 292 292 292 292 292 292 292 292 292 291 291 291 291 291 291 291 291 291 290 290 290 289 289 289 289 288 289 289
295 294 294 293 293 293 293 293 293 292 292 292 292 292 292 293 292 292 292 292 292 292 292 291 291 291 291 290 290 290 290 290 290 290 289 289 288 288 288 288 288 288 288
295 295 294 293 293 293 293 293 292 292 292 292 292 292 292 292 292 292 291 291 291 291 291 291 291 290 290 290 290 290 290 290 289 289 288 288 288 288 288 288 287 287 287
295 295 294 294 294 293 293 293 292 292 292 292 291 291 291 291 291 291 291 291 291 290 290 291 290 290 290 289 289 289 289 289 289 288 288 287 287 287 287 287 287 287 287
296 295 295 294 294 294 293 293 292 292 292 291 291 291 291 291 291 291 290 290 290 290 290 290 290 290 289 289 289 289 289 288 288 288 287 287 287 287 287 287 286 286 285
298 297 296 294 294 294 294 294 294 293 293 292 292 292 291 291 291 290 290 290 290 290 289 289 289 289 289 289 288 288 288 288 287 287 287 287 287 286 286 285 283 282 282
299 298 297 296 295 294 294 294 294 294 294 294 293 292 291 291 291 291 290 290 290 289 289 289 289 288 288 288 288 287 287 287 287 286 286 286 286 286 286 284 283 282 282
301 300 299 298 297 296 294 294 294 294 294 294 294 293 291 292 292 291 291 290 289 289 289 288 288 288 287 287 287 287 286 286 286 286 286 285 285 285 284 284 283 282 282
297 299 300 299 298 297 296 295 294 293 293 293 293 293 293 292 292 292 291 290 289 289 288 288 288 287 287 286 286 286 286 285 285 285 285 285 285 285 284 283 282 282 281
295 295 296 298 299 299 298 297 296 295 294 293 293 293 293 293 293 293 291 290 289 289 289 288 288 287 287 286 286 285 285 285 285 284 284 284 284 284 284 283 281 281 281
296 295 294 294 296 297 297 297 297 296 296 295 294 292 292 292 293 293 292 291 290 289 289 288 288 287 286 286 285 285 284 284 283 283 283 283 283 283 283 282 281 281 280
Wind_Speed
10 11 11 9 7 7 8 11 12 15 17 16 16 14 8 9 9 12 10 11 12 10 10 8 9 10 11 11 11 10 11 11 13 15 15 18 18 15 14 16 18 18 19
12 11 10 8 6 4 2 3 7 8 13 13 12 13 10 9 8 11 12 11 11 7 6 7 9 9 11 9 7 8 9 11 12 13 10 9 11 13 14 15 15 17 18
13 12 11 9 8 6 4 3 2 5 7 10 10 13 9 7 10 12 14 10 8 5 3 4 7 7 6 6 7 9 9 6 5 6 7 9 10 13 15 15 16 17 17
11 11 10 9 8 8 8 7 7 6 6 6 9 8 2 5 8 9 4 4 1 2 5 6 5 4 4 4 4 3 1 2 3 5 6 9 13 16 18 19 19 22 18
10 8 10 9 8 8 9 9 10 10 9 10 8 7 6 6 6 4 5 5 4 6 7 6 5 4 3 3 3 3 4 6 7 7 9 13 16 19 23 26 25 26 27
10 7 7 8 7 8 10 10 11 11 11 13 11 7 6 7 4 6 4 5 6 5 5 6 7 8 7 5 5 5 6 7 8 10 14 15 18 21 22 24 29 34 34
8 9 5 8 8 8 8 7 9 9 10 11 11 10 8 11 11 9 9 8 10 12 11 10 10 10 9 8 8 8 8 8 10 13 15 18 19 20 22 25 27 27 28
8 8 8 9 8 7 6 5 6 7 7 9 10 10 10 13 13 13 14 12 11 11 12 11 10 11 10 9 9 8 9 10 11 14 15 16 18 20 23 24 24 25 24
9 8 10 11 10 9 7 6 7 8 9 11 9 11 10 14 13 11 11 11 11 13 12 11 11 10 10 8 8 9 8 8 11 12 14 16 17 19 21 21 23 26 29
8 9 10 10 10 7 7 8 9 10 10 11 11 13 11 12 13 12 12 12 12 12 12 11 10 9 10 9 8 7 6 9 11 11 12 13 14 16 17 21 23 25 28
3 5 7 8 7 6 6 6 8 8 8 10 9 12 11 12 13 12 11 12 11 10 11 11 10 10 9 8 8 8 9 9 9 9 9 10 13 15 17 19 21 23 24
2 2 3 5 4 4 5 5 4 5 6 6 6 8 10 11 11 10 9 10 10 9 9 9 9 9 9 9 8 8 9 9 8 8 8 11 12 14 17 18 19 20 21
5 6 6 5 6 6 7 8 9 8 8 8 9 8 8 9 9 10 10 10 11 10 9 9 9 8 8 8 8 8 9 9 8 9 11 13 14 15 15 15 16 16 18
9 9 9 8 8 9 8 8 8 8 8 8 7 7 8 9 9 10 10 10 9 9 9 9 9 9 7 6 7 7 7 7 7 8 11 13 13 14 15 16 15 13 13
13 13 12 11 11 11 11 11 10 9 8 8 8 8 8 7 7 7 8 8 9 10 11 11 9 7 6 5 4 4 4 5 6 8 10 12 13 14 15 17 17 18 17
17 16 15 14 13 13 13 13 12 12 12 12 12 11 11 10 9 10 11 11 12 13 13 11 9 6 5 4 4 4 3 3 4 6 8 10 11 13 16 17 18 19 20
22 19 18 18 17 16 15 16 16 16 16 16 15 14 13 13 13 13 13 14 15 15 16 14 10 8 8 8 8 7 6 5 5 6 7 8 10 12 12 15 17 19 21
26 24 23 22 21 20 19 18 18 19 19 18 18 17 17 16 17 17 17 17 17 18 18 17 14 12 12 11 11 10 9 8 6 6 7 7 7 8 10 12 14 16 18
31 30 29 27 26 24 24 23 23 23 22 22 22 22 21 21 21 21 20 20 19 18 19 19 18 16 14 14 13 12 12 11 8 7 6 6 7 7 7 8 10 12 14
36 34 33 32 31 30 29 29 28 28 27 26 26 25 24 25 25 23 22 21 21 20 21 21 20 19 17 16 15 14 14 13 10 9 7 6 6 6 5 5 6 8 9
38 38 37 37 37 35 35 34 31 31 30 29 28 26 27 28 26 26 26 25 22 21 21 21 21 21 19 19 18 17 17 16 14 13 11 9 8 6 4 2 1 3 5
43 42 42 41 40 40 39 37 37 36 34 33 31 28 30 31 31 31 30 28 25 24 23 23 22 22 21 21 20 19 20 19 17 15 14 12 11 10 8 7 4 4 5
43 44 45 45 44 43 42 42 41 40 38 36 34 32 34 35 33 32 31 29 27 27 26 26 25 24 23 22 21 21 21 19 18 18 17 15 14 13 12 11 10 9 9
39 43 45 46 47 47 46 45 44 42 41 39 36 35 35 36 35 32 32 30 29 29 29 28 26 25 25 24 24 24 23 22 22 21 21 20 19 18 16 16 15 14 13
35 40 44 46 48 48 48 48 47 45 43 39 37 37 36 36 35 34 33 32 31 31 30 29 28 27 27 27 26 25 25 25 25 24 24 24 23 22 21 20 19 18 17
33 33 36 41 45 48 48 49 47 45 42 39 37 36 35 36 35 34 33 33 32 32 31 30 29 29 28 28 28 28 28 28 27 27 27 27 26 25 24 24 23 22 21
Wind_Direction
8 2 353 342 328 304 252 234 226 222 222 230 239 229 238 248 258 262 224 215 227 231 228 241 256 270 271 272 273 274 277 271 278 290 293 298 306 312 319 329 330 326 323
19 17 13 9 359 347 330 225 213 218 218 218 223 233 235 250 241 244 225 229 233 235 239 254 265 273 273 277 265 270 274 282 289 292 298 304 318 331 342 348 345 340 339
21 20 20 29 41 54 65 86 133 165 183 202 207 244 223 248 214 236 230 221 211 286 296 257 245 231 242 241 267 267 281 299 304 310 329 332 337 348 356 359 2 357 356
30 33 39 46 56 65 91 98 119 141 162 192 208 169 201 224 208 167 162 156 213 221 247 233 222 213 229 235 260 268 360 341 344 359 352 359 4 3 4 358 7 8 15
29 38 56 57 65 81 94 115 128 134 140 153 188 190 223 198 181 185 181 219 223 201 198 190 200 185 180 130 100 73 42 34 24 14 19 15 11 10 9 8 9 8 10
38 50 71 72 79 99 104 109 118 134 148 149 136 150 181 191 170 161 168 173 183 164 158 142 128 120 114 103 84 66 52 47 34 24 25 21 19 16 13 8 12 11 8
32 34 72 78 88 93 81 105 117 129 134 138 139 142 152 151 145 157 149 156 144 135 126 122 125 117 105 98 83 65 55 48 38 31 27 24 17 15 14 16 15 15 7
60 54 83 82 82 85 95 111 110 105 131 134 135 134 139 135 134 135 130 131 133 131 126 123 120 109 99 90 81 67 51 42 37 33 30 22 19 17 16 15 14 16 11
81 81 92 85 83 82 74 92 107 107 128 129 135 140 138 128 120 123 123 135 138 133 124 121 114 107 101 97 80 64 53 45 42 35 30 25 20 16 14 12 16 14 17
92 97 99 98 91 100 113 118 114 118 137 129 128 129 140 148 133 140 143 132 132 130 130 124 119 119 104 83 80 76 66 53 44 37 30 23 19 19 16 18 18 18 20
73 104 112 110 113 126 123 113 112 121 132 135 142 132 145 134 143 129 135 140 132 134 134 134 131 110 102 106 95 80 70 62 54 42 32 26 24 20 22 20 21 22 19
238 203 147 127 127 130 127 120 128 131 121 123 131 142 146 139 125 140 144 137 146 144 139 130 129 127 116 100 92 86 76 65 53 43 37 37 31 26 24 21 18 20 20
221 218 210 189 184 179 166 164 167 159 151 156 151 144 140 144 158 164 162 162 161 151 155 148 134 130 128 115 101 88 72 60 49 38 36 35 33 30 27 25 22 16 12
238 228 217 213 211 206 194 187 175 169 165 158 157 168 177 181 181 180 177 175 173 169 169 166 163 157 137 123 103 85 76 68 57 48 47 43 39 37 33 33 31 29 18
236 238 232 220 215 213 208 203 198 195 190 187 193 198 201 203 205 202 205 208 203 199 197 192 181 168 159 143 122 117 105 84 68 60 60 53 47 45 44 43 37 33 31
237 237 239 240 235 228 223 218 215 217 217 214 216 213 214 217 218 223 225 228 228 223 217 209 200 197 198 200 207 193 167 132 101 80 72 65 59 52 46 47 44 41 38
242 239 238 239 241 241 238 235 230 229 228 227 226 227 228 228 228 229 233 237 236 235 232 225 215 221 228 233 232 222 210 183 149 112 93 77 68 60 54 55 55 50 44
243 240 239 241 242 243 243 242 241 241 239 237 236 236 235 235 231 231 232 237 240 242 241 238 228 228 232 234 237 239 238 221 179 147 128 110 93 79 68 64 60 53 48
247 245 244 244 243 243 242 240 240 240 240 240 239 240 240 239 238 237 238 240 240 245 249 249 243 237 238 239 236 237 237 230 207 180 162 145 131 115 98 74 60 57 57
247 247 246 246 246 246 245 245 244 244 243 242 243 244 243 244 246 249 250 249 249 249 248 248 247 244 241 241 238 236 236 231 224 208 198 188 168 149 124 97 81 67 54
248 249 249 248 247 247 247 248 251 252 252 251 251 250 250 251 252 251 251 252 252 254 255 253 249 245 241 238 236 233 233 231 226 221 214 209 205 197 187 155 70 28 24
247 248 248 249 249 248 248 249 249 250 251 252 252 250 248 250 250 250 252 253 254 253 252 250 248 246 244 243 239 235 234 233 230 228 227 224 223 223 228 240 261 301 318
249 249 250 250 250 251 251 251 251 251 252 252 252 251 249 252 253 253 255 255 253 253 252 252 249 247 246 244 242 240 239 239 238 237 237 236 238 241 246 258 268 281 290
252 251 251 251 252 252 253 253 254 255 255 254 255 255 254 255 257 256 255 254 252 251 251 250 251 249 247 246 244 242 240 241 242 241 241 243 246 249 253 257 264 271 278
252 251 251 251 251 251 253 253 254 255 258 258 257 257 256 256 257 257 256 254 252 251 251 252 252 250 248 247 246 244 243 244 244 244 244 247 250 253 256 260 263 266 269
250 254 255 253 253 253 253 254 255 257 258 260 261 260 259 258 258 257 256 254 253 252 252 251 252 251 250 248 247 246 245 246 247 247 248 250 252 255 258 260 262 265 267